Friday Harbor, WA

3:52 AM PDT on September 25, 2017 (GMT -0700)
Friday Harbor

Weather History for KFHR - December, 2012

Change the Weather History Date:

Sunday, December 9, 2012

  Actual Average Record
Temperature  
Mean Temperature 38 °F -  
Max Temperature 39 °F 45 °F 57 °F (2014)
Min Temperature 37 °F 36 °F 28 °F (2003)
Degree Days  
Heating Degree Days 27    
Moisture  
Dew Point 37 °F    
Average Humidity 90    
Maximum Humidity 97    
Minimum Humidity 79    
Precipitation  
Precipitation 0.00 in - - ()
Sea Level Pressure  
Sea Level Pressure 30.34 in    
Wind  
Wind Speed 4 mph (ENE)    
Max Wind Speed 9 mph    
Max Gust Speed -    
Visibility 6 miles    
Events Rain    
Averages and records for this station are not official NWS values.
T = Trace of Precipitation, MM = Missing Value Source: NWS Daily Summary

Daily Weather History Graph

Daily Weather History Graph

Search for Another Location

Airport or City:

Trip Planner

Search our weather history database for the weather conditions in past years. The results will help you decide how hot, cold, wet, or windy it might be!

Date:

Astronomy

Dec. 09, 2012 Rise Set
Actual Time 7:52 AM PST 4:16 PM PST
Civil Twilight 7:16 AM PST 4:53 PM PST
Nautical Twilight 6:36 AM PST 5:33 PM PST
Astronomical Twilight 5:58 AM PST 6:11 PM PST
Moon 3:17 AM PST (12/9) 1:39 PM PST (12/9)
Length of Visible Light 9h 37m
Length of Day
8h 24m
Waning Crescent, 17% of the Moon is Illuminated
Dec 9
Waning Crescent
Dec 13
New
Dec 19
First Quarter
Dec 28
Full
Jan 4
Last Quarter

Hourly Weather History & Observations

Time (PST) Temp. Windchill Dew Point Humidity Pressure Visibility Wind Dir Wind Speed Gust Speed Precip Events Conditions
12:53 AM 39.0 °F - 36.0 °F 89% 30.36 in 10.0 mi Calm Calm - N/A   Mostly Cloudy
1:53 AM 39.9 °F - 36.0 °F 86% 30.36 in 10.0 mi Calm Calm - N/A   Overcast
2:53 AM 39.9 °F 37.8 °F 35.1 °F 83% 30.38 in 10.0 mi ENE 3.5 mph - N/A   Overcast
3:53 AM 39.9 °F 35.8 °F 34.0 °F 79% 30.35 in 10.0 mi ESE 5.8 mph - N/A   Overcast
4:53 AM 39.9 °F 35.8 °F 34.0 °F 79% 30.36 in 10.0 mi East 5.8 mph - N/A   Overcast
5:53 AM 39.9 °F 35.1 °F 34.0 °F 79% 30.35 in 10.0 mi East 6.9 mph - N/A   Overcast
6:53 AM 39.9 °F 34.5 °F 34.0 °F 79% 30.36 in 10.0 mi East 8.1 mph - N/A   Overcast
7:53 AM 39.9 °F 34.5 °F 35.1 °F 83% 30.35 in 10.0 mi East 8.1 mph - N/A   Overcast
8:11 AM 39.2 °F 34.2 °F 35.6 °F 87% 30.34 in 10.0 mi Variable 6.9 mph - 0.00 in Rain Light Rain
8:27 AM 39.2 °F 34.2 °F 35.6 °F 87% 30.34 in 8.0 mi East 6.9 mph - 0.00 in Rain Light Rain
8:53 AM 39.9 °F 35.1 °F 36.0 °F 86% 30.35 in 7.0 mi East 6.9 mph - 0.00 in Rain Light Rain
9:53 AM 39.0 °F 32.8 °F 36.0 °F 89% 30.34 in 10.0 mi East 9.2 mph - 0.00 in   Overcast
10:53 AM 39.0 °F 33.4 °F 36.0 °F 89% 30.33 in 5.0 mi ENE 8.1 mph - 0.00 in Rain Light Rain
11:53 AM 39.0 °F 34.8 °F 36.0 °F 89% 30.32 in 3.0 mi East 5.8 mph - 0.00 in Rain Light Rain
12:27 PM 39.2 °F 33.6 °F 35.6 °F 87% 30.32 in 4.0 mi ENE 8.1 mph - 0.00 in   Overcast
12:45 PM 37.4 °F 32.1 °F 35.6 °F 93% 30.33 in 2.0 mi ENE 6.9 mph - 0.00 in Rain Light Rain
12:53 PM 37.9 °F 32.1 °F 37.0 °F 97% 30.32 in 2.0 mi ENE 8.1 mph - 0.00 in Rain Light Rain
1:44 PM 39.2 °F 34.2 °F 37.4 °F 93% 30.31 in 3.0 mi NE 6.9 mph - 0.00 in   Overcast
1:53 PM 39.0 °F 32.8 °F 37.0 °F 93% 30.31 in 3.0 mi ENE 9.2 mph - 0.00 in   Overcast
2:01 PM 39.2 °F 34.2 °F 37.4 °F 93% 30.30 in 2.0 mi NE 6.9 mph - N/A   Overcast
2:53 PM 39.0 °F 34.8 °F 37.9 °F 96% 30.32 in 2.5 mi NE 5.8 mph - N/A   Overcast
3:30 PM 39.2 °F 37.0 °F 37.4 °F 93% 30.32 in 3.0 mi NNE 3.5 mph - N/A   Overcast
3:39 PM 39.2 °F 35.9 °F 37.4 °F 93% 30.33 in 2.5 mi NE 4.6 mph - N/A   Overcast
3:53 PM 39.9 °F - 37.9 °F 93% 30.32 in 2.0 mi Calm Calm - N/A   Overcast
4:10 PM 39.2 °F 37.0 °F 37.4 °F 93% 30.32 in 4.0 mi NNE 3.5 mph - N/A   Overcast
4:53 PM 39.9 °F - 37.9 °F 93% 30.33 in 4.0 mi Calm Calm - N/A   Overcast
5:06 PM 39.2 °F - 37.4 °F 93% 30.33 in 3.0 mi Calm Calm - N/A   Overcast
5:53 PM 39.9 °F 37.8 °F 37.9 °F 93% 30.33 in 5.0 mi North 3.5 mph - N/A   Overcast
6:53 PM 39.9 °F - 39.0 °F 97% 30.33 in 4.0 mi Calm Calm - N/A   Overcast
7:53 PM 39.9 °F - 39.0 °F 97% 30.35 in 10.0 mi Calm Calm - N/A   Overcast
8:53 PM 39.9 °F - 39.0 °F 97% 30.35 in 10.0 mi Calm Calm - N/A   Overcast
9:02 PM 39.2 °F - 37.4 °F 93% 30.36 in 10.0 mi Calm Calm - N/A   Overcast
9:53 PM 39.0 °F - 37.9 °F 96% 30.36 in 10.0 mi Calm Calm - N/A   Overcast
10:53 PM 39.0 °F 36.8 °F 37.9 °F 96% 30.37 in 10.0 mi WNW 3.5 mph - N/A   Overcast
11:53 PM 39.0 °F - 37.0 °F 93% 30.39 in 10.0 mi Calm Calm - N/A   Overcast